When you browse on this site, cookies collect data to enhance your experience and personalize the content and advertising you see.
Visit our Privacy Policy to learn more. By continuing to use the site, you agree to this use of cookies and data.
  • In United Kingdom
  • List of Countries
  • For 7 days
  • Water Temperature
  • Weather Map
  • Weather Widgets
  • user-avatar
    Login

    Hourly Weather Nuernberg

    Today, 14 December, Saturday

    Time Temperature Precipitation Wind Pressure Humidity
    00:00 +2°C° 0.5 mm 6 mps 715 mmHg 91%
    01:00 +2°C° 0.5 mm 6 mps 715 mmHg 89%
    02:00 +1°C° 0 mm 5 mps 715 mmHg 88%
    03:00 +1°C° 0 mm 5 mps 715 mmHg 87%
    04:00 0°C° 0 mm 4 mps 715 mmHg 86%
    05:00 +1°C° 0.3 mm 5 mps 715 mmHg 89%
    06:00 +1°C° 0.3 mm 6 mps 714 mmHg 92%
    07:00 +1°C° 0.3 mm 6 mps 713 mmHg 95%
    08:00 +2°C° 0.8 mm 7 mps 714 mmHg 92%
    09:00 +2°C° 0.8 mm 8 mps 714 mmHg 90%
    10:00 +3°C° 0.8 mm 9 mps 715 mmHg 87%
    11:00 +3°C° 0.3 mm 9 mps 716 mmHg 85%
    12:00 +3°C° 0.3 mm 9 mps 718 mmHg 83%
    13:00 +3°C° 0.3 mm 9 mps 720 mmHg 80%
    14:00 +4°C° 0.2 mm 8 mps 721 mmHg 80%
    15:00 +3°C° 0.2 mm 7 mps 722 mmHg 80%
    16:00 +3°C° 0.2 mm 6 mps 723 mmHg 80%
    17:00 +3°C° 0 mm 5 mps 723 mmHg 81%
    18:00 +2°C° 0 mm 5 mps 723 mmHg 82%
    19:00 +2°C° 0 mm 5 mps 724 mmHg 83%
    20:00 +2°C° 0 mm 5 mps 724 mmHg 84%
    21:00 +4°C° 0 mm 4 mps 724 mmHg 86%
    22:00 +4°C° 0 mm 4 mps 725 mmHg 88%
    23:00 +4°C° 0 mm 3 mps 725 mmHg 89%

    Tomorrow, 15 December, Sunday

    Time Temperature Precipitation Wind Pressure Humidity
    00:00 +3°C° 0 mm 3 mps 725 mmHg 91%
    01:00 +4°C° 0 mm 2 mps 725 mmHg 93%
    02:00 +4°C° 0 mm 3 mps 725 mmHg 92%
    03:00 +4°C° 0 mm 3 mps 725 mmHg 91%
    04:00 +5°C° 0 mm 4 mps 725 mmHg 91%
    05:00 +6°C° 0.3 mm 4 mps 724 mmHg 89%
    06:00 +6°C° 0.3 mm 4 mps 724 mmHg 88%
    07:00 +7°C° 0.3 mm 5 mps 724 mmHg 86%
    08:00 +8°C° 0.2 mm 5 mps 724 mmHg 86%
    09:00 +8°C° 0.2 mm 6 mps 725 mmHg 85%
    10:00 +8°C° 0.2 mm 6 mps 725 mmHg 84%
    11:00 +9°C° 0 mm 6 mps 726 mmHg 82%
    12:00 +9°C° 0 mm 6 mps 726 mmHg 80%
    13:00 +10°C° 0 mm 6 mps 726 mmHg 78%
    14:00 +9°C° 0.1 mm 5 mps 727 mmHg 82%
    15:00 +9°C° 0.1 mm 3 mps 728 mmHg 87%
    16:00 +7°C° 0.1 mm 2 mps 728 mmHg 91%
    17:00 +7°C° 0.1 mm 2 mps 729 mmHg 92%
    18:00 +8°C° 0.1 mm 1 mps 729 mmHg 93%
    19:00 +8°C° 0.1 mm 1 mps 730 mmHg 94%
    20:00 +7°C° 0.1 mm 2 mps 730 mmHg 93%
    21:00 +7°C° 0.1 mm 2 mps 730 mmHg 93%
    22:00 +8°C° 0.1 mm 3 mps 730 mmHg 93%
    23:00 +8°C° 0.2 mm 3 mps 730 mmHg 92%

    Day after tomorrow, 16 December, Monday

    Time Temperature Precipitation Wind Pressure Humidity
    00:00 +7°C° 0.2 mm 2 mps 730 mmHg 91%
    01:00 +7°C° 0.2 mm 2 mps 730 mmHg 89%
    02:00 +7°C° 0.1 mm 2 mps 730 mmHg 86%
    03:00 +7°C° 0.1 mm 3 mps 730 mmHg 83%
    04:00 +5°C° 0.1 mm 3 mps 730 mmHg 79%
    05:00 +5°C° 0 mm 3 mps 730 mmHg 79%
    06:00 +5°C° 0 mm 3 mps 729 mmHg 79%
    07:00 +5°C° 0 mm 3 mps 729 mmHg 79%
    08:00 +5°C° 0 mm 3 mps 729 mmHg 78%
    09:00 +5°C° 0 mm 3 mps 729 mmHg 76%
    10:00 +5°C° 0 mm 3 mps 729 mmHg 74%
    11:00 +7°C° 0 mm 3 mps 729 mmHg 73%
    12:00 +8°C° 0 mm 2 mps 729 mmHg 73%
    13:00 +8°C° 0 mm 2 mps 728 mmHg 72%
    14:00 +7°C° 0 mm 2 mps 728 mmHg 76%
    15:00 +7°C° 0 mm 2 mps 728 mmHg 80%
    16:00 +6°C° 0 mm 2 mps 727 mmHg 84%
    17:00 +5°C° 0 mm 2 mps 727 mmHg 85%
    18:00 +5°C° 0 mm 2 mps 727 mmHg 86%
    19:00 +4°C° 0 mm 2 mps 727 mmHg 87%
    20:00 +3°C° 0 mm 3 mps 727 mmHg 87%
    21:00 +3°C° 0 mm 3 mps 727 mmHg 88%
    22:00 +3°C° 0 mm 3 mps 727 mmHg 88%
    23:00 +3°C° 0 mm 3 mps 727 mmHg 89%

    17 December, Tuesday

    Time Temperature Precipitation Wind Pressure Humidity
    00:00 +3°C° 0 mm 3 mps 727 mmHg 90%
    01:00 +3°C° 0 mm 3 mps 727 mmHg 90%
    02:00 +4°C° 0 mm 2 mps 727 mmHg 90%
    03:00 +4°C° 0 mm 2 mps 727 mmHg 90%
    04:00 +4°C° 0 mm 2 mps 727 mmHg 90%
    05:00 +4°C° 0 mm 2 mps 727 mmHg 89%
    06:00 +4°C° 0 mm 2 mps 727 mmHg 89%
    07:00 +4°C° 0 mm 2 mps 727 mmHg 89%
    08:00 +4°C° 0 mm 2 mps 727 mmHg 88%
    09:00 +6°C° 0 mm 1 mps 728 mmHg 87%
    10:00 +6°C° 0 mm 1 mps 728 mmHg 86%
    11:00 +7°C° 0 mm 1 mps 728 mmHg 84%
    12:00 +8°C° 0 mm 1 mps 728 mmHg 82%
    13:00 +9°C° 0 mm 1 mps 728 mmHg 81%
    14:00 +8°C° 0 mm 1 mps 728 mmHg 83%
    15:00 +6°C° 0 mm 2 mps 728 mmHg 86%
    16:00 +6°C° 0 mm 2 mps 728 mmHg 89%
    17:00 +6°C° 0 mm 1 mps 728 mmHg 89%
    18:00 +6°C° 0 mm 1 mps 728 mmHg 90%
    19:00 +5°C° 0 mm 1 mps 729 mmHg 90%
    20:00 +5°C° 0 mm 1 mps 729 mmHg 90%
    21:00 +5°C° 0 mm 1 mps 729 mmHg 90%
    22:00 +5°C° 0 mm 1 mps 729 mmHg 90%
    23:00 +5°C° 0 mm 1 mps 729 mmHg 90%

    18 December, Wednesday

    Time Temperature Precipitation Wind Pressure Humidity
    00:00 +5°C° 0 mm 1 mps 729 mmHg 91%
    01:00 +5°C° 0 mm 1 mps 729 mmHg 91%
    02:00 +5°C° 0 mm 1 mps 730 mmHg 91%
    03:00 +5°C° 0 mm 1 mps 730 mmHg 91%
    04:00 +5°C° 0 mm 1 mps 730 mmHg 91%
    05:00 +5°C° 0 mm 1 mps 730 mmHg 91%
    06:00 +5°C° 0 mm 1 mps 731 mmHg 91%
    07:00 +4°C° 0 mm 0 mps 731 mmHg 92%
    08:00 +5°C° 0 mm 0 mps 731 mmHg 90%
    09:00 +6°C° 0 mm 1 mps 731 mmHg 89%
    10:00 +7°C° 0 mm 1 mps 732 mmHg 88%
    11:00 +7°C° 0 mm 0 mps 732 mmHg 86%
    12:00 +8°C° 0 mm 0 mps 731 mmHg 83%
    13:00 +9°C° 0 mm 0 mps 731 mmHg 80%
    14:00 +8°C° 0 mm 0 mps 731 mmHg 84%
    15:00 +8°C° 0 mm 1 mps 731 mmHg 88%
    16:00 +7°C° 0 mm 1 mps 731 mmHg 91%
    17:00 +7°C° 0 mm 1 mps 731 mmHg 92%
    18:00 +6°C° 0 mm 1 mps 731 mmHg 93%
    19:00 +6°C° 0 mm 1 mps 731 mmHg 93%
    20:00 +5°C° 0 mm 1 mps 731 mmHg 94%
    21:00 +5°C° 0 mm 1 mps 731 mmHg 94%
    22:00 +5°C° 0 mm 1 mps 731 mmHg 94%
    23:00 +5°C° 0 mm 1 mps 731 mmHg 94%

    19 December, Thursday

    Time Temperature Precipitation Wind Pressure Humidity
    00:00 +4°C° 0 mm 1 mps 730 mmHg 94%
    01:00 +4°C° 0 mm 1 mps 730 mmHg 94%
    02:00 +4°C° 0 mm 1 mps 730 mmHg 94%
    03:00 +4°C° 0 mm 1 mps 730 mmHg 94%
    04:00 +4°C° 0 mm 1 mps 730 mmHg 94%
    05:00 +4°C° 0 mm 1 mps 729 mmHg 94%
    06:00 +4°C° 0 mm 1 mps 729 mmHg 94%
    07:00 +4°C° 0 mm 1 mps 729 mmHg 94%
    08:00 +4°C° 0 mm 1 mps 729 mmHg 93%
    09:00 +5°C° 0 mm 1 mps 728 mmHg 92%
    10:00 +5°C° 0 mm 1 mps 728 mmHg 91%
    11:00 +6°C° 0 mm 1 mps 728 mmHg 89%
    12:00 +6°C° 0 mm 2 mps 727 mmHg 88%
    13:00 +7°C° 0 mm 2 mps 726 mmHg 86%
    14:00 +6°C° 0 mm 2 mps 726 mmHg 88%
    15:00 +6°C° 0 mm 2 mps 725 mmHg 90%
    16:00 +6°C° 0 mm 1 mps 725 mmHg 93%
    17:00 +5°C° 0 mm 2 mps 725 mmHg 93%
    18:00 +5°C° 0 mm 2 mps 724 mmHg 94%
    19:00 +5°C° 0 mm 2 mps 724 mmHg 94%
    20:00 +5°C° 0 mm 2 mps 724 mmHg 95%
    21:00 +5°C° 0 mm 2 mps 724 mmHg 95%
    22:00 +6°C° 0 mm 1 mps 724 mmHg 96%
    23:00 +6°C° 0 mm 1 mps 723 mmHg 96%
    Show more